www.pogodaiklimat.ru

Погода и климат >> Архив погоды >> Норвегия >> Маяк Svinoy


ПОГОДА на Маяке Svinoy

  • Прогноз погоды на Маяке Svinoy
  • Монитор погоды на Маяке Svinoy

АРХИВ ПОГОДЫ на Маяке Svinoy

Время (UTC), дата Ветер
(напр.,м/с)
 
Видим.   Явления Облачность Т
(С)
Тd
(С)
f
(%)
Тe
(С)
Тes
(С)
Комфортность P
(гПа)
Po
(гПа)
Тmin
(С)
Tmax
(С)
R
(мм)
R24
(мм)
S
(см)
19 15.08 ЮВ 3-4
{5}
н/о н/о +15.4 +10.6 73 +15 +15 1001.2 996.8
20 15.08 Ю 1-2
{3}
н/о н/о +15.4 +11.2 76 +16 +16 1001.1 996.7
21 15.08 ЮЗ 11-13
{17}
н/о н/о +13.9 +12.5 91 +11 +11 1001.2 996.8
22 15.08 Ю 7-12
{13}
н/о н/о +14.2 +11.4 83 +12 +12 1001.6 997.2
23 15.08 ЮЗ 12-14
{14}
н/о н/о +12.5 +12.2 98 +9 +9 1001.6 997.2
00 16.08 ЮЗ 13-17
{17}
н/о н/о +13.4 +9.8 79 +10 +10 1001.3 996.9
01 16.08 ЮЗ 16-18
{18}
н/о н/о +13.2 +8.5 73 +9 +9 1001.8 997.4
02 16.08 ЮЗ 16-19
{19}
н/о н/о +13.2 +7.2 67 +9 +9 1002.3 997.9
03 16.08 ЮЗ 15-18
{18}
н/о н/о +13.7 +7.5 66 +10 +10 1002.5 998.1
04 16.08 ЮЗ 15-17
{18}
н/о н/о +13.4 +8.1 70 +10 +10 1003.2 998.8
05 16.08 ЮЗ 16-18
{18}
н/о н/о +13.1 +6.5 64 +9 +9 1002.9 998.5
06 16.08 ЮЗ 15-17
{19}
н/о н/о +13.1 +7.8 70 +9 +9 1003.6 999.2 +12.2 +15.6
07 16.08 ЮЗ 13-15
{17}
н/о н/о +13.3 +8.8 74 +10 +10 1004.1 999.7
08 16.08 ЮЗ 15-17
{17}
н/о н/о +13.4 +8.1 70 +10 +10 1004.4 1000.0
09 16.08 ЮЗ 13-15
{16}
н/о н/о +13.8 +7.4 65 +11 +11 1004.8 1000.4
10 16.08 ЮЗ 12-15
{15}
н/о н/о +13.8 +8.4 70 +11 +11 1004.8 1000.4
11 16.08 ЮЗ 14-16
{17}
н/о н/о +13.9 +8.7 71 +11 +11 1004.8 1000.4
12 16.08 ЮЗ 13-14
{17}
н/о н/о +14.2 +8.6 69 +11 +11 1004.9 1000.5
13 16.08 ЮЗ 9-11
{14}
н/о н/о +14.6 +8.1 65 +12 +12 1004.7 1000.3
14 16.08 ЮЗ 8-10
{10}
н/о н/о +14.8 +8.1 64 +13 +13 1004.5 1000.1
15 16.08 ЮЗ 7-8
{10}
н/о н/о +14.8 +8.7 67 +13 +13 1004.1 999.7
16 16.08 ЮЗ 6-7
{9}
н/о н/о +14.6 +9.0 69 +13 +13 1003.8 999.4
17 16.08 ЮЗ 6-7
{9}
н/о н/о +13.7 +8.8 72 +12 +12 1003.7 999.3
18 16.08 Ю 4-5
{14}
н/о н/о +13.4 +8.9 74 +12 +12 1003.4 999.0 +13.0 +15.1
19 16.08 ЮВ 2-3
{5}
н/о н/о +13.0 +9.6 80 +12 +12 1003.0 998.6
20 16.08 В 3-3
{4}
н/о н/о +13.1 +10.1 82 +12 +12 1002.8 998.4
21 16.08 В 6-7
{7}
н/о н/о +13.0 +10.4 84 +11 +11 1002.0 997.6
22 16.08 В 6-7
{7}
н/о н/о +13.6 +10.8 83 +11 +11 1001.2 996.8
23 16.08 ЮВ 7-8
{8}
н/о н/о +14.3 +10.5 78 +12 +12 1000.3 995.9
00 17.08 ЮВ 4-5
{8}
н/о н/о +15.1 +10.1 72 +14 +14 999.8 995.4
01 17.08 ЮВ 5-7
{7}
н/о н/о +15.2 +9.3 68 +14 +14 998.7 994.3
02 17.08 ЮВ 4-5
{7}
н/о н/о +15.6 +9.1 65 +15 +15 998.2 993.8
03 17.08 ЮВ 5-6
{6}
н/о н/о +15.5 +10.1 70 +14 +14 997.0 992.6
04 17.08 В 7-7
{7}
н/о н/о +15.3 +10.7 74 +14 +14 996.1 991.7
05 17.08 ЮВ 6-7
{8}
н/о н/о +15.6 +9.9 69 +14 +14 995.3 991.0
06 17.08 Ю 2-4
{8}
н/о н/о +15.1 +10.9 76 +15 +15 995.0 990.6 +12.9 +15.8
07 17.08 В 5-5
{6}
н/о н/о +14.4 +11.4 82 +13 +13 994.4 990.0
08 17.08 ЮВ 4-5
{6}
н/о н/о +14.6 +11.2 80 +13 +13 993.5 989.1
09 17.08 ЮВ 5-6
{7}
н/о н/о +15.1 +11.3 78 +14 +14 992.6 988.3
10 17.08 В 6-7
{7}
н/о н/о +15.5 +10.9 74 +14 +14 991.7 987.4
11 17.08 ЮВ 5-5
{8}
н/о н/о +15.8 +11.0 73 +15 +15 991.6 987.3
12 17.08 Ю 2-3
{8}
н/о н/о +16.6 +12.8 78 +17 +17 991.3 987.0
13 17.08 ЮВ 3-4
{4}
н/о н/о +17.2 +11.5 69 +17 +17 990.9 986.6
14 17.08 ЮВ 2-4
{4}
н/о н/о +17.1 +11.4 69 +17 +17 990.7 986.4
15 17.08 Ю 4-7
{11}
н/о н/о +15.5 +14.0 91 +14 +14 991.2 986.9
16 17.08 Ю 5-8
{8}
н/о н/о +16.4 +13.7 84 +15 +15 991.2 986.9
17 17.08 Ю 5-8
{10}
н/о н/о +16.7 +13.0 79 +16 +16 991.5 987.2
18 17.08 Ю 10-13
{15}
н/о н/о +16.5 +12.1 75 +15 +15 991.6 987.3 +14.4 +18.3
19 17.08 Ю 10-13
{14}
н/о н/о +16.2 +12.4 78 +14 +14 991.9 987.6
20 17.08 ЮЗ 7-9
{14}
н/о н/о +15.4 +12.5 83 +14 +14 992.3 988.0
21 17.08 ЮЗ 9-11
{11}
н/о н/о +15.3 +11.9 80 +13 +13 992.7 988.4
22 17.08 Ю 10-14
{14}
н/о н/о +14.8 +12.0 83 +12 +12 993.4 989.0
23 17.08 ЮЗ 16-18
{19}
н/о н/о +14.1 +11.4 84 +10 +10 993.7 989.3
00 18.08 ЮЗ 15-19
{19}
н/о н/о +14.3 +10.9 80 +11 +11 994.7 990.3
01 18.08 Ю 9-11
{19}
н/о н/о +14.1 +9.5 74 +12 +12 995.7 991.3
02 18.08 Ю 8-10
{12}
н/о н/о +14.0 +9.7 75 +12 +12 996.1 991.7
03 18.08 Ю 5-8
{10}
н/о н/о +14.1 +9.3 73 +12 +12 995.9 991.5
04 18.08 Ю 6-12
{12}
н/о н/о +14.2 +8.4 68 +12 +12 995.9 991.5
05 18.08 Ю 6-8
{11}
н/о н/о +14.2 +8.8 70 +12 +12 995.8 991.4
06 18.08 Ю 5-9
{19}
н/о н/о +14.5 +8.5 67 +13 +13 995.9 991.5 +13.7 +16.6
07 18.08 Ю 5-9
{9}
н/о н/о +14.8 +8.3 65 +13 +13 995.9 991.5
08 18.08 Ю 6-11
{11}
н/о н/о +14.8 +8.3 65 +13 +13 996.2 991.8
09 18.08 ЮВ 6-7
{10}
н/о н/о +15.5 +8.5 63 +14 +14 996.1 991.7
10 18.08 Ю 4-7
{9}
н/о н/о +15.9 +9.3 65 +15 +15 996.0 991.7
11 18.08 Ю 7-9
{14}
н/о н/о +15.8 +9.7 67 +14 +14 996.2 991.8
12 18.08 Ю 6-10
{14}
н/о н/о +16.6 +8.3 58 +16 +16 996.0 991.7
13 18.08 Ю 6-8
{16}
н/о н/о +15.5 +9.2 66 +14 +14 996.7 992.3
14 18.08 Ю 6-9
{10}
н/о н/о +16.1 +8.6 61 +15 +15 996.5 992.2
15 18.08 Ю 6-11
{18}
н/о н/о +14.3 +9.5 73 +12 +12 996.7 992.3
16 18.08 Ю 5-11
{11}
н/о н/о +15.2 +8.5 64 +14 +14 996.7 992.3
17 18.08 Ю 5-7
{10}
н/о н/о +15.2 +9.3 68 +14 +14 996.3 991.9
18 18.08 ЮВ 4-4
{18}
н/о н/о +15.0 +9.6 70 +14 +14 995.8 991.4 +14.2 +17.0
19 18.08 ЮВ 2-3
{4}
н/о н/о +15.2 +9.1 67 +15 +15 995.6 991.2
20 18.08 Ю 4-5
{5}
н/о н/о +15.9 +8.9 63 +15 +15 995.4 991.1
21 18.08 Ю 3-4
{5}
н/о н/о +15.4 +10.2 71 +15 +15 995.4 991.1
22 18.08 Ю 3-4
{4}
н/о н/о +15.1 +10.5 74 +14 +14 995.7 991.3
23 18.08 ЮВ 2-3
{4}
н/о н/о +15.9 +7.2 56 +16 +16 995.5 991.2
00 19.08 ЮВ 3-3
{5}
н/о н/о +14.9 +9.5 70 +14 +14 995.3 990.9
01 19.08 В 3-4
{4}
н/о н/о +14.4 +10.8 79 +13 +13 994.9 990.5
02 19.08 ЮВ 3-4
{4}
н/о н/о +14.5 +10.1 75 +14 +14 994.4 990.0
03 19.08 В 5-6
{6}
н/о н/о +14.7 +10.7 77 +13 +13 993.9 989.5
04 19.08 ЮВ 5-7
{7}
н/о н/о +14.9 +9.7 71 +13 +13 993.7 989.3
05 19.08 ЮВ 5-6
{7}
н/о н/о +15.0 +10.0 72 +14 +14 993.3 989.0
06 19.08 Ю 4-8
{9}
н/о н/о +15.6 +8.6 63 +15 +15 993.3 989.0 +14.3 +16.1
07 19.08 Ю 2-4
{7}
н/о н/о +15.2 +9.3 68 +15 +15 993.5 989.2
08 19.08 Ю 8-11
{11}
н/о н/о +15.4 +9.8 69 +14 +14 993.7 989.4
09 19.08 Ю 8-10
{11}
н/о н/о +15.3 +9.9 70 +13 +13 994.3 990.0
10 19.08 ЮЗ 8-11
{12}
н/о н/о +15.1 +9.7 70 +13 +13 994.9 990.5
11 19.08 Ю 9-11
{13}
н/о н/о +15.3 +9.9 70 +13 +13 995.5 991.1
12 19.08 Ю 9-12
{13}
н/о н/о +14.7 +9.7 72 +12 +12 996.4 992.0
13 19.08 Ю 8-11
{11}
н/о н/о +14.0 +11.2 83 +11 +11 997.1 992.7
14 19.08 Ю 8-12
{14}
н/о н/о +13.3 +11.5 89 +10 +10 997.5 993.1
15 19.08 ЮЗ 14-17
{17}
н/о н/о +14.4 +12.1 86 +11 +11 997.6 993.2
16 19.08 ЮЗ 14-17
{17}
н/о н/о +14.9 +11.5 80 +12 +12 997.7 993.3
17 19.08 Ю 8-10
{17}
н/о н/о +14.3 +11.6 84 +12 +12 998.6 994.2
18 19.08 ЮЗ 11-15
{17}
н/о н/о +13.9 +11.4 85 +11 +11 998.9 994.5 +12.9 +15.7
19 19.08 ЮЗ 14-17
{17}
н/о н/о +14.0 +13.1 94 +10 +10 998.6 994.2
20 19.08 ЮЗ 16-19
{19}
н/о н/о +13.9 +11.8 87 +10 +10 998.9 994.5
21 19.08 ЮЗ 16-19
{23}
н/о н/о +13.6 +11.7 88 +10 +10 999.1 994.7
22 19.08 ЮЗ 15-18
{19}
н/о н/о +13.9 +12.1 89 +10 +10 1000.0 995.6
23 19.08 ЮЗ 16-20
{20}
н/о н/о +14.0 +12.1 88 +10 +10 1000.4 996.0
00 20.08 ЮЗ 11-13
{23}
н/о н/о +13.3 +11.9 91 +10 +10 1001.4 997.0
01 20.08 З 9-12
{14}
н/о н/о +13.5 +11.6 88 +11 +11 1001.8 997.4
02 20.08 ЮЗ 11-13
{13}
н/о н/о +13.8 +10.4 80 +11 +11 1002.2 997.8
03 20.08 ЮЗ 10-12
{13}
н/о н/о +13.9 +11.1 83 +11 +11 1002.6 998.2
04 20.08 ЮЗ 11-13
{13}
н/о н/о +14.0 +10.0 77 +11 +11 1003.1 998.7
05 20.08 ЮЗ 11-13
{13}
н/о н/о +13.8 +10.4 80 +11 +11 1003.6 999.2
06 20.08 ЮЗ 11-13
{14}
н/о н/о +14.0 +10.2 78 +11 +11 1003.9 999.5 +12.7 +14.4
07 20.08 ЮЗ 10-13
{14}
н/о н/о +13.7 +10.3 80 +11 +11 1004.7 1000.3
08 20.08 ЮЗ 12-14
{14}
н/о н/о +13.9 +10.9 82 +11 +11 1005.1 1000.7
09 20.08 З 11-14
{15}
н/о н/о +13.3 +10.3 82 +10 +10 1005.8 1001.4
10 20.08 ЮЗ 14-16
{16}
н/о н/о +13.6 +9.5 76 +10 +10 1006.3 1001.9
11 20.08 ЮЗ 13-14
{15}
н/о н/о +13.8 +9.9 77 +10 +10 1007.1 1002.7
12 20.08 ЮЗ 13-14
{16}
н/о н/о +14.0 +10.2 78 +11 +11 1007.8 1003.4
13 20.08 ЮЗ 14-15
{15}
н/о н/о +14.2 +9.8 75 +11 +11 1008.3 1003.9
14 20.08 ЮЗ 10-12
{17}
н/о н/о +13.1 +11.7 91 +10 +10 1009.6 1005.2
15 20.08 З 12-15
{15}
н/о н/о +13.6 +10.2 80 +10 +10 1009.9 1005.5
16 20.08 ЮЗ 14-16
{16}
н/о н/о +13.4 +10.4 82 +10 +10 1010.4 1006.0
17 20.08 ЮЗ 13-17
{17}
н/о н/о +13.4 +10.0 80 +10 +10 1011.2 1006.7
18 20.08 ЮЗ 13-16
{17}
н/о н/о +13.2 +10.0 81 +10 +10 1011.8 1007.3 +12.6 +14.3
19 20.08 ЮЗ 13-15
{16}
н/о н/о +13.0 +9.5 79 +9 +9 1012.3 1007.8
20 20.08 ЮЗ 13-15
{16}
н/о н/о +12.6 +10.0 84 +9 +9 1013.0 1008.5
21 20.08 З 11-15
{18}
н/о н/о +12.2 +10.4 89 +8 +8 1013.5 1009.0
22 20.08 ЮЗ 15-18
{18}
н/о н/о +12.0 +11.1 94 +7 +7 1013.9 1009.4
23 20.08 З 12-17
{18}
н/о н/о +12.1 +11.0 93 +8 +8 1014.4 1009.9
00 21.08 З 13-16
{20}
н/о н/о +12.5 +9.3 81 +9 +9 1015.2 1010.7
01 21.08 З 14-17
{17}
н/о н/о +12.4 +9.2 81 +8 +8 1015.8 1011.3
02 21.08 З 12-16
{16}
н/о н/о +12.4 +8.3 76 +9 +9 1016.2 1011.7
03 21.08 З 11-14
{16}
н/о н/о +12.3 +8.6 78 +9 +9 1017.1 1012.6
04 21.08 З 13-16
{16}
н/о н/о +12.3 +5.5 63 +8 +8 1017.2 1012.7
05 21.08 З 13-16
{16}
н/о н/о +11.9 +6.6 70 +8 +8 1017.9 1013.4
06 21.08 З 12-14
{17}
н/о н/о +11.8 +5.9 67 +8 +8 1018.7 1014.2 +11.3 +13.4
07 21.08 З 10-13
{14}
н/о н/о +12.1 +6.8 70 +9 +9 1019.5 1015.0
08 21.08 ЮЗ 10-14
{14}
н/о н/о +12.0 +5.6 65 +9 +9 1020.0 1015.5
09 21.08 ЮЗ 9-11
{14}
н/о н/о +12.4 +6.2 66 +9 +9 1020.5 1016.0
10 21.08 ЮЗ 11-13
{13}
н/о н/о +12.7 +6.1 64 +9 +9 1020.5 1016.0
11 21.08 ЮЗ 11-13
{14}
н/о н/о +12.9 +6.0 63 +10 +10 1020.7 1016.2
12 21.08 ЮЗ 11-12
{14}
н/о н/о +13.2 +5.9 61 +10 +10 1020.8 1016.3
13 21.08 ЮЗ 11-12
{13}
н/о н/о +13.3 +6.7 64 +10 +10 1020.9 1016.4
14 21.08 ЮЗ 10-12
{13}
н/о н/о +13.7 +7.0 64 +11 +11 1020.9 1016.4
15 21.08 ЮЗ 11-12
{12}
н/о н/о +13.7 +7.0 64 +11 +11 1020.8 1016.3
16 21.08 ЮЗ 10-12
{12}
н/о н/о +13.9 +7.4 65 +11 +11 1020.7 1016.2
17 21.08 ЮЗ 10-11
{12}
н/о н/о +13.9 +7.9 67 +11 +11 1020.3 1015.8
18 21.08 ЮЗ 8-9
{13}
н/о н/о +14.0 +8.8 71 +12 +12 1020.1 1015.6 +11.7 +14.1
19 21.08 ЮЗ 5-7
{8}
н/о н/о +14.1 +8.1 67 +12 +12 1020.0 1015.5
20 21.08 Ю 3-5
{6}
н/о н/о +13.9 +8.1 68 +13 +13 1019.7 1015.2
21 21.08 Ю 3-4
{6}
н/о н/о +13.6 +8.9 73 +13 +13 1019.6 1015.1
22 21.08 ЮВ 3-4
{4}
н/о н/о +13.3 +8.8 74 +12 +12 1019.3 1014.8
23 21.08 ЮВ 3-3
{4}
н/о н/о +13.1 +9.0 76 +12 +12 1019.1 1014.6
00 22.08 ЮВ 4-5
{8}
н/о н/о +13.0 +8.9 76 +11 +11 1018.6 1014.1
01 22.08 ЮВ 5-7
{7}
н/о н/о +13.0 +9.6 80 +11 +11 1017.7 1013.2
02 22.08 ЮВ 6-7
{8}
н/о н/о +13.0 +8.9 76 +11 +11 1016.7 1012.2
03 22.08 ЮВ 5-7
{8}
н/о н/о +13.6 +7.6 67 +12 +12 1015.8 1011.3
04 22.08 ЮВ 6-7
{8}
н/о н/о +13.8 +7.8 67 +12 +12 1014.8 1010.3
05 22.08 ЮВ 7-8
{8}
н/о н/о +13.7 +7.9 68 +11 +11 1014.1 1009.6
06 22.08 В 7-8
{9}
н/о н/о +13.9 +7.9 67 +12 +12 1013.3 1008.8 +12.8 +14.2
07 22.08 В 6-6
{8}
н/о н/о +13.8 +8.4 70 +12 +12 1012.9 1008.4
08 22.08 ЮВ 6-7
{7}
н/о н/о +13.8 +9.1 73 +12 +12 1012.0 1007.6
09 22.08 ЮВ 7-8
{9}
н/о н/о +14.0 +9.5 74 +12 +12 1011.2 1006.8
10 22.08 ЮВ 7-9
{9}
н/о н/о +13.8 +9.1 73 +12 +12 1010.7 1006.3
11 22.08 ЮВ 6-8
{9}
н/о н/о +14.5 +9.1 70 +13 +13 1010.0 1005.6
12 22.08 Ю 6-9
{10}
н/о н/о +15.4 +9.1 66 +14 +14 1010.0 1005.6
13 22.08 Ю 9-13
{13}
н/о н/о +15.7 +11.1 74 +14 +14 1010.3 1005.9
14 22.08 ЮЗ 10-13
{14}
н/о н/о +15.5 +10.7 73 +13 +13 1010.1 1005.7
15 22.08 ЮЗ 13-17
{17}
н/о н/о +13.9 +11.3 84 +11 +11 1010.1 1005.7
17 22.08 ЮЗ 11-12
{13}
н/о н/о +14.1 +10.9 81 +11 +11 1010.6 1006.2
18 22.08 ЮЗ 10-12
{17}
н/о н/о +14.0 +10.8 81 +11 +11 1011.1 1006.7 +13.2 +16.0
19 22.08 ЮЗ 11-13
{13}
н/о н/о +14.3 +10.7 79 +11 +11 1011.2 1006.8

 

Местоположение метеостанции Маяк Svinoy (Норвегия): широта 62.33 долгота 5.27 высота над уровнем моря 38 м.

В архиве по умолчанию представлена погода на Маяке Svinoy за последнюю неделю. Архивные данные за месяц целиком и за предыдущие месяцы, начиная с января 2011 года, Вы можете получить, выбрав интересующий диапазон дат из раскрывающегося списка и нажав кнопку "Ввод!".


*Определитесь, кто Вы:
робот инопланетянин человек

Внимание! Время в таблицах - всемирное. Для получения местного времени необходимо прибавить поправку, которая равна 1 ч.

Смотрите также архив погоды в соседних городах и на ближайших метеорологических станциях:

Погода в Берген аэропорту (Норвегия) (5 км)
Погода в Фиске (Норвегия) (30 км)
Погода на Маяке Krakenes (Норвегия) (36 км)
Погода в Аэропорту Орста-Волда (Норвегия) (45 км)
Погода в Олесунне (Норвегия) (51 км)
Погода в Олесунн аэропорту (Норвегия) (51 км)
Погода в Сандан аэропорту (Норвегия) (70 км)
Погода в Стрын-Крокене (Норвегия) (81 км)
Погода в Флоро аэропорту (Норвегия) (84 км)
Погода в Рекдале (Норвегия) (84 км)

Пояснения к столбцам:

Ветер - указаны скорость ветра в м/с - средняя за 10 мин, порывы в срок и между сроками (в фигурных скобках) и направление, откуда дует ветер: С - северный, СВ - северо-восточный, В - восточный, ЮВ - юго-восточный, Ю - южный, ЮЗ - юго-западный, З - западный, СЗ - северо-западный.
Видимость - горизонтальная дальность видимости в метрах или километрах. При видимости от 1 до 10 км при отсутствии осадков обычно наблюдается дымка, при ухудшении видимости до 1 км и менее - туман. В сухую погоду видимость может ухудшаться дымом, пылью или мглою.
Явления - указаны атмосферные явления, наблюдавшиеся в срок или в последний час перед сроком; фигурными скобками обозначены явления, наблюдавшиеся между сроками (за 1-3 часа до срока); квадратными скобками обозначены град или гололедные отложения с указанием их диаметра в мм.
Облачность - указаны через наклонную черту общая и нижняя облачность в баллах и высота нижней границы облаков в метрах; квадратными скобками обозначены формы облаков: Ci - перистые, Cs - перисто-слоистые, Cc - перисто-кучевые, Ac - высококучевые, As - высокослоистые, Sc - слоисто-кучевые, Ns - слоисто-дождевые, Cu - кучевые, Cb - кучево-дождевые. Подробнее классификацию облаков см. в Атласе облаков (PDF).
T - Температура воздуха - температура, измеренная на высоте 2 м над землей.
Td - Температура точки росы - температура, при понижении до которой содержащийся в воздухе водяной пар достигнет насыщения.
f - Относительная влажность воздуха - влажноcть воздуха, измеренная на высоте 2 м над землей.
Te - Эффективная температура - температура, которую ощущает одетый по сезону человек в тени. Характеристика душности погоды. При расчете учитывается влияние влажности воздуха и скорости ветра на теплоощущения человека.
Tes - Эффективная температура на солнце - температура, которую ощущает человек, с поправкой на солнечный нагрев. Характеристика знойности погоды. Зависит от высоты солнца над горизонтом, облачности и скорости ветра. Ночью, в пасмурную погоду, а также при ветре 12 м/с и более поправка равна нулю.
P - Атмосферное давление - приведенное к уровню моря атмосферное давление.
Po - Атмосферное давление - измеренное на уровне метеостанции атмосферное давление.
Tmin - Минимальная температура - минимум температуры воздуха на высоте 2 м над землей.
Tmax - Максимальная температура - максимум температуры воздуха на высоте 2 м над землей.
R - Количество осадков - Количество выпавших осадков за период времени, мм. При наведении курсора мыши на число - период времени, за который выпало указанное количество осадков.
R24 - Количество осадков - Количество выпавших осадков за 24 часа, мм.
S - Снежный покров - Высота снежного покрова, см. При наведении курсора мыши на число - состояние снежного покрова и степень покрытия местности в баллах.